Time,TemperatureF,DewpointF,PressureIn,WindDirection,WindDirectionDegrees,WindSpeedMPH,WindSpeedGustMPH,Humidity,HourlyPrecipIn,Conditions,Clouds,dailyrainin,SoftwareType,DateUTC
2013-03-21 00:00:00,59.6,59.0,29.88,WSW,249,2.3,3.9,98,0.00,,---,0.00,VWS V14.01,2013-03-21 04:00:00,
2013-03-21 00:05:00,59.4,58.8,29.88,SW,228,0.0,0.0,98,0.00,,---,0.00,VWS V14.01,2013-03-21 04:05:00,
2013-03-21 00:10:00,59.4,58.8,29.89,West,276,3.2,4.9,98,0.00,,---,0.00,VWS V14.01,2013-03-21 04:10:00,
2013-03-21 00:15:00,59.5,58.9,29.89,West,262,0.0,0.0,98,0.00,,---,0.00,VWS V14.01,2013-03-21 04:15:00,
2013-03-21 00:20:00,59.1,58.5,29.89,West,262,0.0,0.0,98,0.00,,---,0.00,VWS V14.01,2013-03-21 04:20:00,
2013-03-21 00:25:00,59.4,58.9,29.89,WNW,295,0.6,0.6,98,0.00,,---,0.00,VWS V14.01,2013-03-21 04:25:00,
2013-03-21 00:30:00,58.7,58.2,29.89,NNW,330,0.0,2.6,98,0.00,,---,0.00,VWS V14.01,2013-03-21 04:30:00,
2013-03-21 00:35:00,59.3,58.8,29.89,NNW,330,0.0,0.0,98,0.00,,---,0.00,VWS V14.01,2013-03-21 04:35:00,
2013-03-21 00:40:00,59.1,58.6,29.88,NW,322,2.6,3.9,98,0.00,,---,0.00,VWS V14.01,2013-03-21 04:40:00,
2013-03-21 00:45:00,58.4,58.0,29.89,NNW,335,3.1,4.0,98,0.00,,---,0.00,VWS V14.01,2013-03-21 04:45:00,
2013-03-21 00:50:00,59.0,58.7,29.88,WNW,284,0.0,0.0,99,0.00,,---,0.00,VWS V14.01,2013-03-21 04:50:00,
2013-03-21 00:55:00,58.8,58.5,29.88,NW,318,2.6,4.4,99,0.00,,---,0.00,VWS V14.01,2013-03-21 04:55:00,
2013-03-21 01:00:00,58.8,58.5,29.87,NNW,328,0.0,0.0,99,0.00,,---,0.00,VWS V14.01,2013-03-21 05:00:00,
2013-03-21 01:05:00,58.2,57.9,29.88,NW,319,3.3,3.4,99,0.00,,---,0.00,VWS V14.01,2013-03-21 05:05:00,
2013-03-21 01:10:00,58.7,58.4,29.89,NNW,338,3.9,9.3,99,0.00,,---,0.00,VWS V14.01,2013-03-21 05:10:00,
2013-03-21 01:15:00,58.1,57.8,29.89,WNW,298,3.0,4.8,99,0.00,,---,0.00,VWS V14.01,2013-03-21 05:15:00,
2013-03-21 01:20:00,58.8,58.5,29.89,NW,314,2.8,5.2,99,0.00,,---,0.00,VWS V14.01,2013-03-21 05:20:00,
2013-03-21 01:25:00,57.9,57.7,29.89,WNW,302,0.0,0.6,99,0.00,,---,0.00,VWS V14.01,2013-03-21 05:25:00,
2013-03-21 01:30:00,58.6,58.4,29.89,WNW,295,0.6,2.3,99,0.00,,---,0.00,VWS V14.01,2013-03-21 05:30:00,
2013-03-21 01:35:00,57.8,57.6,29.89,WNW,297,2.0,4.0,99,0.00,,---,0.00,VWS V14.01,2013-03-21 05:35:00,
2013-03-21 01:40:00,58.5,58.3,29.89,North,359,3.7,3.7,99,0.00,,---,0.00,VWS V14.01,2013-03-21 05:40:00,
2013-03-21 01:45:00,58.4,58.2,29.89,NW,311,1.8,2.1,99,0.00,,---,0.00,VWS V14.01,2013-03-21 05:45:00,
2013-03-21 01:50:00,58.3,58.1,29.88,WNW,292,3.9,4.3,99,0.00,,---,0.00,VWS V14.01,2013-03-21 05:50:00,
2013-03-21 01:55:00,57.6,57.4,29.88,West,264,0.0,0.0,99,0.00,,---,0.00,VWS V14.01,2013-03-21 05:55:00,
2013-03-21 02:00:00,58.2,58.0,29.88,West,264,0.0,0.0,99,0.00,,---,0.00,VWS V14.01,2013-03-21 06:00:00,
2013-03-21 02:05:00,57.7,57.5,29.88,WNW,290,0.0,4.1,99,0.00,,---,0.00,VWS V14.01,2013-03-21 06:05:00,
2013-03-21 02:10:00,57.7,57.6,29.88,NW,307,3.8,5.1,100,0.00,,---,0.00,VWS V14.01,2013-03-21 06:10:00,
2013-03-21 02:15:00,57.2,57.1,29.88,NW,312,0.0,0.0,100,0.00,,---,0.00,VWS V14.01,2013-03-21 06:15:00,
2013-03-21 02:20:00,57.8,57.7,29.88,North,350,3.0,5.3,100,0.00,,---,0.00,VWS V14.01,2013-03-21 06:20:00,
2013-03-21 02:25:00,57.8,57.7,29.87,NNW,333,5.6,7.1,100,0.00,,---,0.00,VWS V14.01,2013-03-21 06:25:00,
2013-03-21 02:30:00,57.4,57.3,29.88,NW,321,2.2,5.4,100,0.00,,---,0.00,VWS V14.01,2013-03-21 06:30:00,
2013-03-21 02:35:00,57.1,57.0,29.88,NNW,329,4.3,5.8,100,0.00,,---,0.00,VWS V14.01,2013-03-21 06:35:00,
2013-03-21 02:40:00,56.4,56.3,29.88,NNW,347,5.4,5.4,100,0.00,,---,0.00,VWS V14.01,2013-03-21 06:40:00,
2013-03-21 02:45:00,56.8,56.8,29.89,NW,305,0.0,1.3,100,0.00,,---,0.00,VWS V14.01,2013-03-21 06:45:00,
2013-03-21 02:50:00,56.8,56.8,29.89,WSW,252,2.0,3.9,100,0.00,,---,0.00,VWS V14.01,2013-03-21 06:50:00,
2013-03-21 02:55:00,56.1,56.1,29.89,NNW,329,3.9,4.8,100,0.00,,---,0.00,VWS V14.01,2013-03-21 06:55:00,
2013-03-21 03:00:00,56.7,56.7,29.89,NW,305,0.0,1.2,100,0.00,,---,0.00,VWS V14.01,2013-03-21 07:00:00,
2013-03-21 03:05:00,55.8,55.8,29.89,WNW,287,1.0,3.0,100,0.00,,---,0.00,VWS V14.01,2013-03-21 07:05:00,
2013-03-21 03:10:00,56.3,56.3,29.89,WNW,297,0.0,0.0,100,0.00,,---,0.00,VWS V14.01,2013-03-21 07:10:00,
2013-03-21 03:15:00,55.8,55.8,29.89,North,352,1.6,3.1,100,0.00,,---,0.00,VWS V14.01,2013-03-21 07:15:00,
2013-03-21 03:20:00,55.8,55.8,29.89,NNW,329,4.8,4.9,100,0.00,,---,0.00,VWS V14.01,2013-03-21 07:20:00,
2013-03-21 03:25:00,55.8,55.8,29.89,North,349,8.3,8.6,100,0.00,,---,0.00,VWS V14.01,2013-03-21 07:25:00,
2013-03-21 03:30:00,56.1,56.1,29.88,NNW,340,4.1,7.3,100,0.00,,---,0.00,VWS V14.01,2013-03-21 07:30:00,
2013-03-21 03:35:00,56.0,56.0,29.88,NW,316,2.7,4.7,100,0.00,,---,0.00,VWS V14.01,2013-03-21 07:35:00,
2013-03-21 03:40:00,55.5,55.5,29.88,NW,322,2.2,4.9,100,0.00,,---,0.00,VWS V14.01,2013-03-21 07:40:00,
2013-03-21 03:45:00,55.9,55.9,29.89,NW,316,0.7,4.0,100,0.00,,---,0.00,VWS V14.01,2013-03-21 07:45:00,
2013-03-21 03:50:00,56.0,56.0,29.89,West,260,0.6,0.6,100,0.00,,---,0.00,VWS V14.01,2013-03-21 07:50:00,
2013-03-21 03:55:00,55.3,55.3,29.89,WNW,283,2.1,3.4,100,0.00,,---,0.00,VWS V14.01,2013-03-21 07:55:00,
2013-03-21 04:00:00,55.8,55.8,29.89,WNW,287,2.6,3.4,100,0.00,,---,0.00,VWS V14.01,2013-03-21 08:00:00,
2013-03-21 04:05:00,55.7,55.7,29.89,NW,305,2.0,2.3,100,0.01,,---,0.01,VWS V14.01,2013-03-21 08:05:00,
2013-03-21 04:10:00,55.4,55.4,29.89,WNW,297,0.0,1.4,100,0.01,,---,0.01,VWS V14.01,2013-03-21 08:10:00,
2013-03-21 04:15:00,55.6,55.6,29.88,NNW,342,3.5,6.2,100,0.01,,---,0.01,VWS V14.01,2013-03-21 08:15:00,
2013-03-21 04:20:00,54.8,54.8,29.89,WNW,300,1.2,5.5,100,0.01,,---,0.01,VWS V14.01,2013-03-21 08:20:00,
2013-03-21 04:25:00,55.0,55.0,29.89,NW,323,0.8,2.9,100,0.01,,---,0.01,VWS V14.01,2013-03-21 08:25:00,
2013-03-21 04:30:00,55.1,55.1,29.89,NW,326,1.7,2.7,100,0.01,,---,0.01,VWS V14.01,2013-03-21 08:30:00,
2013-03-21 04:35:00,55.0,55.0,29.89,NNW,347,1.4,3.7,100,0.01,,---,0.01,VWS V14.01,2013-03-21 08:35:00,
2013-03-21 04:40:00,54.7,54.7,29.89,North,349,4.7,4.7,100,0.01,,---,0.01,VWS V14.01,2013-03-21 08:40:00,
2013-03-21 04:45:00,54.6,54.6,29.89,NNW,345,0.0,0.0,100,0.01,,---,0.01,VWS V14.01,2013-03-21 08:45:00,
2013-03-21 04:50:00,54.1,54.1,29.89,NNW,345,0.0,0.0,100,0.01,,---,0.01,VWS V14.01,2013-03-21 08:50:00,
2013-03-21 04:55:00,54.6,54.6,29.89,NW,316,0.0,0.0,100,0.01,,---,0.01,VWS V14.01,2013-03-21 08:55:00,
2013-03-21 05:00:00,53.9,53.9,29.89,NW,316,0.0,0.0,100,0.01,,---,0.01,VWS V14.01,2013-03-21 09:00:00,
2013-03-21 05:05:00,54.2,54.2,29.89,NW,316,0.0,0.0,100,0.00,,---,0.01,VWS V14.01,2013-03-21 09:05:00,
2013-03-21 05:10:00,53.6,53.6,29.89,NW,316,0.0,0.0,100,0.00,,---,0.01,VWS V14.01,2013-03-21 09:10:00,
2013-03-21 05:15:00,53.2,53.2,29.89,NW,323,1.3,3.2,100,0.00,,---,0.01,VWS V14.01,2013-03-21 09:15:00,
2013-03-21 05:20:00,53.7,53.7,29.90,WNW,291,0.0,0.0,100,0.00,,---,0.01,VWS V14.01,2013-03-21 09:20:00,
2013-03-21 05:25:00,53.2,53.2,29.90,WNW,291,0.0,0.0,100,0.00,,---,0.01,VWS V14.01,2013-03-21 09:25:00,
2013-03-21 05:30:00,52.9,52.9,29.90,West,281,0.0,1.3,100,0.00,,---,0.01,VWS V14.01,2013-03-21 09:30:00,
2013-03-21 05:35:00,53.1,53.1,29.90,WNW,288,2.0,2.5,100,0.00,,---,0.01,VWS V14.01,2013-03-21 09:35:00,
2013-03-21 05:40:00,53.2,53.2,29.91,WNW,285,3.7,4.2,100,0.00,,---,0.01,VWS V14.01,2013-03-21 09:40:00,
2013-03-21 05:45:00,52.9,52.9,29.91,WNW,294,3.2,3.7,100,0.00,,---,0.01,VWS V14.01,2013-03-21 09:45:00,
2013-03-21 05:50:00,52.8,52.8,29.90,WNW,300,0.8,4.0,100,0.00,,---,0.01,VWS V14.01,2013-03-21 09:50:00,
2013-03-21 05:55:00,52.6,52.6,29.91,NW,322,5.0,5.0,100,0.00,,---,0.01,VWS V14.01,2013-03-21 09:55:00,
2013-03-21 06:00:00,51.1,51.1,29.90,NNW,338,4.6,5.8,100,0.00,,---,0.01,VWS V14.01,2013-03-21 10:00:00,
2013-03-21 06:05:00,51.5,51.3,29.90,NNW,339,7.3,9.1,99,0.00,,---,0.01,VWS V14.01,2013-03-21 10:05:00,
2013-03-21 06:10:00,50.7,50.3,29.90,NNW,328,6.6,7.3,99,0.00,,---,0.01,VWS V14.01,2013-03-21 10:10:00,
2013-03-21 06:15:00,51.1,50.6,29.91,NW,316,3.7,5.3,98,0.00,,---,0.01,VWS V14.01,2013-03-21 10:15:00,
2013-03-21 06:20:00,50.7,50.0,29.91,NNW,330,5.0,9.1,97,0.00,,---,0.01,VWS V14.01,2013-03-21 10:20:00,
2013-03-21 06:25:00,50.6,49.7,29.91,NW,321,7.0,7.0,97,0.00,,---,0.01,VWS V14.01,2013-03-21 10:25:00,
2013-03-21 06:30:00,50.9,49.9,29.91,North,357,5.4,5.9,96,0.00,,---,0.01,VWS V14.01,2013-03-21 10:30:00,
2013-03-21 06:35:00,51.1,49.9,29.92,NNW,339,3.7,6.3,96,0.00,,---,0.01,VWS V14.01,2013-03-21 10:35:00,
2013-03-21 06:40:00,50.1,48.7,29.92,NW,315,5.3,6.6,95,0.00,,---,0.01,VWS V14.01,2013-03-21 10:40:00,
2013-03-21 06:45:00,50.8,49.2,29.92,NNW,345,5.5,8.7,94,0.00,,---,0.01,VWS V14.01,2013-03-21 10:45:00,
2013-03-21 06:50:00,50.7,48.6,29.92,NNW,340,6.0,7.0,92,0.00,,---,0.01,VWS V14.01,2013-03-21 10:50:00,
2013-03-21 06:55:00,50.7,48.3,29.93,NNW,342,4.1,6.3,92,0.00,,---,0.01,VWS V14.01,2013-03-21 10:55:00,
2013-03-21 07:00:00,50.2,47.6,29.92,NNE,17,6.2,8.3,91,0.00,,---,0.01,VWS V14.01,2013-03-21 11:00:00,
2013-03-21 07:05:00,50.3,47.5,29.92,NNW,340,7.9,8.5,90,0.00,,---,0.01,VWS V14.01,2013-03-21 11:05:00,
2013-03-21 07:10:00,49.9,47.0,29.92,NNW,342,4.5,8.2,90,0.00,,---,0.01,VWS V14.01,2013-03-21 11:10:00,
2013-03-21 07:15:00,50.0,47.0,29.92,NNW,335,6.6,6.6,90,0.00,,---,0.01,VWS V14.01,2013-03-21 11:15:00,
2013-03-21 07:20:00,49.8,46.5,29.93,NNW,347,4.6,6.2,88,0.00,,---,0.01,VWS V14.01,2013-03-21 11:20:00,
2013-03-21 07:25:00,49.4,46.0,29.93,NNW,345,3.7,6.1,88,0.00,,---,0.01,VWS V14.01,2013-03-21 11:25:00,
2013-03-21 07:30:00,49.7,46.2,29.93,NW,311,1.8,4.5,88,0.00,,---,0.01,VWS V14.01,2013-03-21 11:30:00,
2013-03-21 07:35:00,49.3,45.7,29.94,NNW,343,2.4,4.5,87,0.00,,---,0.01,VWS V14.01,2013-03-21 11:35:00,
2013-03-21 07:40:00,49.5,45.9,29.94,NW,323,1.6,5.0,87,0.00,,---,0.01,VWS V14.01,2013-03-21 11:40:00,
2013-03-21 07:45:00,49.1,45.5,29.94,WNW,291,0.0,1.6,87,0.00,,---,0.01,VWS V14.01,2013-03-21 11:45:00,
2013-03-21 07:50:00,49.8,46.1,29.94,NW,325,3.7,4.7,87,0.00,,---,0.01,VWS V14.01,2013-03-21 11:50:00,
2013-03-21 07:55:00,49.4,45.5,29.94,NNW,340,2.2,2.2,86,0.00,,---,0.01,VWS V14.01,2013-03-21 11:55:00,
2013-03-21 08:00:00,49.1,45.2,29.94,NW,319,1.2,1.4,86,0.00,,---,0.01,VWS V14.01,2013-03-21 12:00:00,
2013-03-21 08:05:00,49.4,45.2,29.94,NW,316,2.9,3.9,86,0.00,,---,0.01,VWS V14.01,2013-03-21 12:05:00,
2013-03-21 08:10:00,49.8,45.6,29.94,NW,319,5.0,6.1,85,0.00,,---,0.01,VWS V14.01,2013-03-21 12:10:00,
2013-03-21 08:15:00,49.7,45.7,29.94,NNW,347,0.8,5.7,86,0.00,,---,0.01,VWS V14.01,2013-03-21 12:15:00,
2013-03-21 08:20:00,49.8,45.6,29.94,NNW,328,3.5,4.8,85,0.00,,---,0.01,VWS V14.01,2013-03-21 12:20:00,
2013-03-21 08:25:00,49.7,45.5,29.94,North,353,2.2,4.5,86,0.00,,---,0.01,VWS V14.01,2013-03-21 12:25:00,
2013-03-21 08:30:00,50.0,45.4,29.94,NNW,345,4.4,7.7,84,0.00,,---,0.01,VWS V14.01,2013-03-21 12:30:00,
2013-03-21 08:35:00,49.7,44.6,29.94,NW,321,2.8,5.7,82,0.00,,---,0.01,VWS V14.01,2013-03-21 12:35:00,
2013-03-21 08:40:00,50.0,44.4,29.94,NNW,340,4.2,4.8,81,0.00,,---,0.01,VWS V14.01,2013-03-21 12:40:00,
2013-03-21 08:45:00,51.4,45.3,29.95,North,352,5.6,7.1,80,0.00,,---,0.01,VWS V14.01,2013-03-21 12:45:00,
2013-03-21 08:50:00,50.6,43.3,29.94,North,349,5.6,8.4,76,0.00,,---,0.01,VWS V14.01,2013-03-21 12:50:00,
2013-03-21 08:55:00,52.1,44.0,29.95,NW,316,7.1,9.2,74,0.00,,---,0.01,VWS V14.01,2013-03-21 12:55:00,
2013-03-21 09:00:00,52.2,43.2,29.96,NNE,21,6.3,6.3,71,0.00,,---,0.01,VWS V14.01,2013-03-21 13:00:00,
2013-03-21 09:05:00,52.6,42.6,29.96,North,1,9.1,9.9,69,0.00,,---,0.01,VWS V14.01,2013-03-21 13:05:00,
2013-03-21 09:10:00,52.9,40.8,29.96,NNW,347,8.6,12.6,63,0.00,,---,0.01,VWS V14.01,2013-03-21 13:10:00,
2013-03-21 09:15:00,52.7,39.4,29.96,NNW,345,16.3,18.0,60,0.00,,---,0.01,VWS V14.01,2013-03-21 13:15:00,
2013-03-21 09:20:00,53.0,40.8,29.96,NNW,345,9.9,14.0,63,0.00,,---,0.01,VWS V14.01,2013-03-21 13:20:00,
2013-03-21 09:25:00,52.9,40.3,29.96,NNW,342,16.5,19.1,62,0.00,,---,0.01,VWS V14.01,2013-03-21 13:25:00,
2013-03-21 09:30:00,53.4,39.8,29.96,NNW,335,14.2,16.4,60,0.00,,---,0.01,VWS V14.01,2013-03-21 13:30:00,
2013-03-21 09:35:00,53.4,39.7,29.96,North,352,9.8,18.3,60,0.00,,---,0.01,VWS V14.01,2013-03-21 13:35:00,
2013-03-21 09:40:00,53.2,39.6,29.96,NNW,339,9.3,11.2,60,0.00,,---,0.01,VWS V14.01,2013-03-21 13:40:00,
2013-03-21 09:45:00,53.4,39.5,29.96,North,356,7.8,13.2,59,0.00,,---,0.01,VWS V14.01,2013-03-21 13:45:00,
2013-03-21 09:50:00,53.0,39.9,29.97,North,354,10.6,10.6,61,0.00,,---,0.01,VWS V14.01,2013-03-21 13:50:00,
2013-03-21 09:55:00,53.5,39.3,29.97,NNW,329,12.5,15.1,58,0.00,,---,0.01,VWS V14.01,2013-03-21 13:55:00,
2013-03-21 10:00:00,54.2,40.8,29.97,NE,49,4.3,9.3,60,0.00,,---,0.01,VWS V14.01,2013-03-21 14:00:00,
2013-03-21 10:05:00,54.6,40.7,29.97,NNE,18,5.8,8.3,59,0.00,,---,0.01,VWS V14.01,2013-03-21 14:05:00,
2013-03-21 10:10:00,54.2,39.9,29.97,North,1,3.2,6.1,58,0.00,,---,0.01,VWS V14.01,2013-03-21 14:10:00,
2013-03-21 10:15:00,54.5,40.3,29.97,NNW,345,5.8,8.6,58,0.00,,---,0.01,VWS V14.01,2013-03-21 14:15:00,
2013-03-21 10:20:00,55.2,41.3,29.97,NW,321,3.7,8.9,59,0.00,,---,0.01,VWS V14.01,2013-03-21 14:20:00,
2013-03-21 10:25:00,54.5,39.9,29.97,NNW,340,11.0,11.4,58,0.00,,---,0.01,VWS V14.01,2013-03-21 14:25:00,
2013-03-21 10:30:00,55.2,41.4,29.97,North,7,4.6,7.3,60,0.00,,---,0.01,VWS V14.01,2013-03-21 14:30:00,
2013-03-21 10:35:00,55.6,40.7,29.97,North,359,8.5,9.2,57,0.00,,---,0.01,VWS V14.01,2013-03-21 14:35:00,
2013-03-21 10:40:00,55.4,40.9,29.97,NNW,345,7.1,7.1,58,0.00,,---,0.01,VWS V14.01,2013-03-21 14:40:00,
2013-03-21 10:45:00,56.8,41.4,29.97,NNW,330,8.9,9.6,56,0.00,,---,0.01,VWS V14.01,2013-03-21 14:45:00,
2013-03-21 10:50:00,56.5,39.7,29.97,NNW,340,8.1,8.4,53,0.00,,---,0.01,VWS V14.01,2013-03-21 14:50:00,
2013-03-21 10:55:00,57.6,40.8,29.97,North,10,10.7,11.6,53,0.00,,---,0.01,VWS V14.01,2013-03-21 14:55:00,
2013-03-21 11:00:00,57.9,40.3,29.97,ENE,60,6.1,6.4,52,0.00,,---,0.01,VWS V14.01,2013-03-21 15:00:00,
2013-03-21 11:05:00,58.2,39.8,29.97,NNE,27,6.2,9.1,50,0.00,,---,0.01,VWS V14.01,2013-03-21 15:05:00,
2013-03-21 11:10:00,58.6,40.1,29.97,North,359,5.0,6.9,50,0.00,,---,0.01,VWS V14.01,2013-03-21 15:10:00,
2013-03-21 11:15:00,59.0,41.1,29.97,NE,38,2.2,4.9,51,0.00,,---,0.01,VWS V14.01,2013-03-21 15:15:00,
2013-03-21 11:20:00,59.4,40.2,29.98,NW,326,7.8,8.5,49,0.00,,---,0.01,VWS V14.01,2013-03-21 15:20:00,
2013-03-21 11:25:00,59.6,40.4,29.98,NNE,17,8.9,9.8,49,0.00,,---,0.01,VWS V14.01,2013-03-21 15:25:00,
2013-03-21 11:30:00,59.0,37.8,29.97,NNW,333,10.4,12.2,45,0.00,,---,0.01,VWS V14.01,2013-03-21 15:30:00,
2013-03-21 11:35:00,58.7,37.3,29.97,NNW,346,8.8,10.7,45,0.00,,---,0.01,VWS V14.01,2013-03-21 15:35:00,
2013-03-21 11:40:00,58.9,38.3,29.97,West,259,5.3,6.4,46,0.00,,---,0.01,VWS V14.01,2013-03-21 15:40:00,
2013-03-21 11:45:00,58.5,37.8,29.97,NW,305,6.1,6.2,46,0.00,,---,0.01,VWS V14.01,2013-03-21 15:45:00,
2013-03-21 11:50:00,60.2,39.0,29.97,NNW,336,9.4,9.8,45,0.00,,---,0.01,VWS V14.01,2013-03-21 15:50:00,
2013-03-21 11:55:00,60.5,38.2,29.97,NW,311,7.0,7.0,43,0.00,,---,0.01,VWS V14.01,2013-03-21 15:55:00,
2013-03-21 12:00:00,61.4,38.1,29.98,North,359,3.7,6.7,42,0.00,,---,0.01,VWS V14.01,2013-03-21 16:00:00,
2013-03-21 12:05:00,61.5,38.6,29.98,NNW,332,8.9,9.8,43,0.00,,---,0.01,VWS V14.01,2013-03-21 16:05:00,
2013-03-21 12:10:00,61.6,37.8,29.98,NNW,338,8.5,10.1,41,0.00,,---,0.01,VWS V14.01,2013-03-21 16:10:00,
2013-03-21 12:15:00,61.2,36.8,29.97,North,3,7.8,12.7,40,0.00,,---,0.01,VWS V14.01,2013-03-21 16:15:00,
2013-03-21 12:20:00,60.8,35.9,29.97,NNW,329,12.6,12.8,39,0.00,,---,0.01,VWS V14.01,2013-03-21 16:20:00,
2013-03-21 12:25:00,61.7,37.2,29.97,NNW,338,10.1,10.9,40,0.00,,---,0.01,VWS V14.01,2013-03-21 16:25:00,
2013-03-21 12:30:00,62.2,37.5,29.97,NNE,32,1.4,1.4,40,0.00,,---,0.01,VWS V14.01,2013-03-21 16:30:00,
2013-03-21 12:35:00,63.2,37.8,29.97,NW,316,3.9,7.7,39,0.00,,---,0.01,VWS V14.01,2013-03-21 16:35:00,
2013-03-21 12:40:00,63.6,36.3,29.97,WNW,292,3.0,5.3,36,0.00,,---,0.01,VWS V14.01,2013-03-21 16:40:00,
2013-03-21 12:45:00,63.4,36.4,29.97,WNW,285,5.2,6.5,37,0.00,,---,0.01,VWS V14.01,2013-03-21 16:45:00,
2013-03-21 12:50:00,64.3,36.2,29.96,NE,39,6.5,8.8,35,0.00,,---,0.01,VWS V14.01,2013-03-21 16:50:00,
2013-03-21 12:55:00,64.9,33.3,29.96,WNW,285,7.5,8.5,31,0.00,,---,0.01,VWS V14.01,2013-03-21 16:55:00,
2013-03-21 13:00:00,65.1,33.5,29.96,NW,314,9.1,12.4,31,0.00,,---,0.01,VWS V14.01,2013-03-21 17:00:00,
2013-03-21 13:05:00,64.9,34.1,29.96,NW,314,4.3,6.3,32,0.00,,---,0.01,VWS V14.01,2013-03-21 17:05:00,
2013-03-21 13:10:00,66.2,34.5,29.96,NW,326,7.0,7.6,31,0.00,,---,0.01,VWS V14.01,2013-03-21 17:10:00,
2013-03-21 13:15:00,65.1,34.1,29.96,NW,315,1.4,1.4,31,0.00,,---,0.01,VWS V14.01,2013-03-21 17:15:00,
2013-03-21 13:20:00,65.6,34.5,29.96,North,10,5.2,6.1,31,0.00,,---,0.01,VWS V14.01,2013-03-21 17:20:00,
2013-03-21 13:25:00,64.7,35.4,29.96,NW,307,4.0,5.7,34,0.00,,---,0.01,VWS V14.01,2013-03-21 17:25:00,
2013-03-21 13:30:00,65.3,36.2,29.95,SW,229,8.4,8.8,34,0.00,,---,0.01,VWS V14.01,2013-03-21 17:30:00,
2013-03-21 13:35:00,65.0,36.4,29.95,NW,307,6.2,7.2,35,0.00,,---,0.01,VWS V14.01,2013-03-21 17:35:00,
2013-03-21 13:40:00,64.1,36.0,29.95,SW,235,10.7,11.6,35,0.00,,---,0.01,VWS V14.01,2013-03-21 17:40:00,
2013-03-21 13:45:00,63.7,35.8,29.94,WNW,292,9.6,9.6,35,0.00,,---,0.01,VWS V14.01,2013-03-21 17:45:00,
2013-03-21 13:50:00,65.0,36.4,29.94,WSW,255,10.9,10.9,35,0.00,,---,0.01,VWS V14.01,2013-03-21 17:50:00,
2013-03-21 13:55:00,64.9,36.3,29.93,North,350,5.3,6.3,35,0.00,,---,0.01,VWS V14.01,2013-03-21 17:55:00,
2013-03-21 14:00:00,64.0,34.7,29.92,NW,322,3.9,4.4,33,0.00,,---,0.01,VWS V14.01,2013-03-21 18:00:00,
2013-03-21 14:05:00,65.0,35.4,29.92,West,270,4.5,7.5,33,0.00,,---,0.01,VWS V14.01,2013-03-21 18:05:00,
2013-03-21 14:10:00,65.9,36.3,29.92,NW,305,4.8,6.3,33,0.00,,---,0.01,VWS V14.01,2013-03-21 18:10:00,
2013-03-21 14:15:00,65.0,36.3,29.92,West,263,7.0,7.4,34,0.00,,---,0.01,VWS V14.01,2013-03-21 18:15:00,
2013-03-21 14:20:00,64.8,36.8,29.92,WNW,284,2.2,4.2,35,0.00,,---,0.01,VWS V14.01,2013-03-21 18:20:00,
2013-03-21 14:25:00,65.3,36.6,29.92,West,280,8.3,10.3,34,0.00,,---,0.01,VWS V14.01,2013-03-21 18:25:00,
2013-03-21 14:30:00,64.9,36.0,29.92,WSW,246,7.6,9.6,34,0.00,,---,0.01,VWS V14.01,2013-03-21 18:30:00,
2013-03-21 14:35:00,64.9,36.0,29.91,WSW,243,6.7,11.2,34,0.00,,---,0.01,VWS V14.01,2013-03-21 18:35:00,
2013-03-21 14:40:00,65.7,36.2,29.91,NW,323,3.9,3.9,34,0.00,,---,0.01,VWS V14.01,2013-03-21 18:40:00,
2013-03-21 14:45:00,66.4,35.6,29.91,NW,312,4.0,11.6,32,0.00,,---,0.01,VWS V14.01,2013-03-21 18:45:00,
2013-03-21 14:50:00,67.0,35.8,29.92,West,276,5.2,8.8,32,0.00,,---,0.01,VWS V14.01,2013-03-21 18:50:00,
2013-03-21 14:55:00,66.3,35.4,29.92,NW,315,1.9,3.8,32,0.00,,---,0.01,VWS V14.01,2013-03-21 18:55:00,
2013-03-21 15:00:00,66.1,36.1,29.91,SW,235,7.3,8.3,33,0.00,,---,0.01,VWS V14.01,2013-03-21 19:00:00,
2013-03-21 15:05:00,66.2,35.4,29.91,North,356,4.5,5.5,32,0.00,,---,0.01,VWS V14.01,2013-03-21 19:05:00,
2013-03-21 15:10:00,67.7,36.4,29.91,NNW,330,2.9,4.1,32,0.00,,---,0.01,VWS V14.01,2013-03-21 19:10:00,
2013-03-21 15:15:00,66.7,35.1,29.91,NW,304,6.3,6.3,31,0.00,,---,0.01,VWS V14.01,2013-03-21 19:15:00,
2013-03-21 15:20:00,68.2,36.2,29.91,WNW,298,4.3,5.3,31,0.00,,---,0.01,VWS V14.01,2013-03-21 19:20:00,
2013-03-21 15:25:00,67.9,34.7,29.91,WSW,242,8.8,12.5,29,0.00,,---,0.01,VWS V14.01,2013-03-21 19:25:00,
2013-03-21 15:30:00,66.8,33.6,29.90,NNW,329,3.4,4.8,29,0.00,,---,0.01,VWS V14.01,2013-03-21 19:30:00,
2013-03-21 15:35:00,68.4,32.7,29.90,NW,322,6.8,7.3,26,0.00,,---,0.01,VWS V14.01,2013-03-21 19:35:00,
2013-03-21 15:40:00,67.7,30.0,29.90,WNW,288,6.3,9.2,24,0.00,,---,0.01,VWS V14.01,2013-03-21 19:40:00,
2013-03-21 15:45:00,68.6,30.5,29.90,NW,308,5.3,6.0,24,0.00,,---,0.01,VWS V14.01,2013-03-21 19:45:00,
2013-03-21 15:50:00,68.6,29.2,29.90,WSW,240,12.7,16.8,23,0.00,,---,0.01,VWS V14.01,2013-03-21 19:50:00,
2013-03-21 15:55:00,69.1,29.6,29.89,West,277,2.1,8.6,23,0.00,,---,0.01,VWS V14.01,2013-03-21 19:55:00,
2013-03-21 16:00:00,69.4,32.1,29.89,SW,235,9.3,10.9,25,0.00,,---,0.01,VWS V14.01,2013-03-21 20:00:00,
2013-03-21 16:05:00,68.2,32.0,29.89,WSW,240,5.6,8.0,26,0.00,,---,0.01,VWS V14.01,2013-03-21 20:05:00,
2013-03-21 16:10:00,69.6,31.9,29.89,NNW,340,4.7,7.3,25,0.00,,---,0.01,VWS V14.01,2013-03-21 20:10:00,
2013-03-21 16:15:00,68.7,32.0,29.89,NNW,329,8.5,8.8,26,0.00,,---,0.01,VWS V14.01,2013-03-21 20:15:00,
2013-03-21 16:20:00,69.0,31.4,29.89,WNW,295,3.4,7.6,25,0.00,,---,0.01,VWS V14.01,2013-03-21 20:20:00,
2013-03-21 16:25:00,68.7,31.9,29.89,West,259,4.6,5.1,25,0.00,,---,0.01,VWS V14.01,2013-03-21 20:25:00,
2013-03-21 16:30:00,68.8,31.0,29.89,NW,304,4.5,10.9,24,0.00,,---,0.01,VWS V14.01,2013-03-21 20:30:00,
2013-03-21 16:35:00,69.4,32.0,29.88,West,270,8.8,9.8,25,0.00,,---,0.01,VWS V14.01,2013-03-21 20:35:00,
2013-03-21 16:40:00,68.4,31.4,29.88,West,278,4.3,4.3,25,0.00,,---,0.01,VWS V14.01,2013-03-21 20:40:00,
2013-03-21 16:45:00,69.3,32.6,29.88,WSW,245,6.9,9.6,26,0.00,,---,0.01,VWS V14.01,2013-03-21 20:45:00,
2013-03-21 16:50:00,69.2,32.2,29.88,WNW,288,5.6,6.5,25,0.00,,---,0.01,VWS V14.01,2013-03-21 20:50:00,
2013-03-21 16:55:00,69.8,31.9,29.88,SW,229,4.7,6.2,24,0.00,,---,0.01,VWS V14.01,2013-03-21 20:55:00,
2013-03-21 17:00:00,70.3,32.7,29.87,NW,322,1.7,1.7,25,0.00,,---,0.01,VWS V14.01,2013-03-21 21:00:00,
2013-03-21 17:05:00,70.5,32.0,29.87,WSW,257,3.5,3.5,24,0.00,,---,0.01,VWS V14.01,2013-03-21 21:05:00,
2013-03-21 17:10:00,70.0,31.6,29.88,WNW,301,4.3,5.7,24,0.00,,---,0.01,VWS V14.01,2013-03-21 21:10:00,
2013-03-21 17:15:00,70.5,31.5,29.88,NW,309,5.7,5.7,24,0.00,,---,0.01,VWS V14.01,2013-03-21 21:15:00,
2013-03-21 17:20:00,69.7,30.9,29.88,West,277,6.4,8.5,24,0.00,,---,0.01,VWS V14.01,2013-03-21 21:20:00,
2013-03-21 17:25:00,70.1,31.2,29.88,North,1,4.1,5.2,24,0.00,,---,0.01,VWS V14.01,2013-03-21 21:25:00,
2013-03-21 17:30:00,70.2,31.5,29.88,North,359,7.0,7.3,24,0.00,,---,0.01,VWS V14.01,2013-03-21 21:30:00,
2013-03-21 17:35:00,70.1,31.7,29.88,North,352,5.0,8.5,24,0.00,,---,0.01,VWS V14.01,2013-03-21 21:35:00,
2013-03-21 17:40:00,70.5,32.2,29.88,NNW,332,3.4,6.9,24,0.00,,---,0.01,VWS V14.01,2013-03-21 21:40:00,
2013-03-21 17:45:00,70.1,32.1,29.88,NNW,328,2.9,2.9,24,0.00,,---,0.01,VWS V14.01,2013-03-21 21:45:00,
2013-03-21 17:50:00,69.7,30.5,29.88,WSW,243,5.6,5.6,23,0.00,,---,0.01,VWS V14.01,2013-03-21 21:50:00,
2013-03-21 17:55:00,70.4,30.8,29.88,North,353,4.7,6.2,23,0.00,,---,0.01,VWS V14.01,2013-03-21 21:55:00,
2013-03-21 18:00:00,69.7,31.2,29.88,NW,305,4.7,4.8,24,0.00,,---,0.01,VWS V14.01,2013-03-21 22:00:00,
2013-03-21 18:05:00,70.1,32.2,29.89,NNW,336,0.8,3.1,24,0.00,,---,0.01,VWS V14.01,2013-03-21 22:05:00,
2013-03-21 18:10:00,70.2,30.3,29.89,NW,315,4.3,4.7,23,0.00,,---,0.01,VWS V14.01,2013-03-21 22:10:00,
2013-03-21 18:15:00,70.1,30.3,29.89,WNW,284,6.5,8.0,23,0.00,,---,0.01,VWS V14.01,2013-03-21 22:15:00,
2013-03-21 18:20:00,69.8,29.8,29.89,WNW,290,3.2,4.0,22,0.00,,---,0.01,VWS V14.01,2013-03-21 22:20:00,
2013-03-21 18:25:00,69.3,29.4,29.89,West,266,4.6,5.3,22,0.00,,---,0.01,VWS V14.01,2013-03-21 22:25:00,
2013-03-21 18:30:00,70.0,29.4,29.89,West,276,6.0,6.0,22,0.00,,---,0.01,VWS V14.01,2013-03-21 22:30:00,
2013-03-21 18:35:00,70.1,29.1,29.89,WNW,285,0.8,2.1,22,0.00,,---,0.01,VWS V14.01,2013-03-21 22:35:00,
2013-03-21 18:40:00,69.5,26.5,29.89,WSW,248,1.3,2.2,20,0.00,,---,0.01,VWS V14.01,2013-03-21 22:40:00,
2013-03-21 18:45:00,69.5,28.8,29.89,SSW,210,0.6,1.1,22,0.00,,---,0.01,VWS V14.01,2013-03-21 22:45:00,
2013-03-21 18:50:00,69.4,26.5,29.89,NNW,330,4.2,4.2,20,0.00,,---,0.01,VWS V14.01,2013-03-21 22:50:00,
2013-03-21 18:55:00,69.5,26.7,29.90,North,10,6.7,7.4,20,0.00,,---,0.01,VWS V14.01,2013-03-21 22:55:00,
2013-03-21 19:00:00,68.2,24.0,29.89,NNW,338,6.0,7.4,19,0.00,,---,0.01,VWS V14.01,2013-03-21 23:00:00,
2013-03-21 19:05:00,68.2,24.3,29.89,NW,311,1.9,3.9,19,0.00,,---,0.01,VWS V14.01,2013-03-21 23:05:00,
2013-03-21 19:10:00,68.5,26.0,29.89,NNW,342,8.2,8.2,20,0.00,,---,0.01,VWS V14.01,2013-03-21 23:10:00,
2013-03-21 19:15:00,67.5,25.0,29.89,NNW,345,6.4,6.7,20,0.00,,---,0.01,VWS V14.01,2013-03-21 23:15:00,
2013-03-21 19:20:00,66.8,24.8,29.90,NW,307,2.8,3.7,20,0.00,,---,0.01,VWS V14.01,2013-03-21 23:20:00,
2013-03-21 19:25:00,67.0,25.2,29.90,North,354,2.5,5.5,20,0.00,,---,0.01,VWS V14.01,2013-03-21 23:25:00,
2013-03-21 19:30:00,66.0,25.2,29.90,North,7,3.5,3.5,21,0.00,,---,0.01,VWS V14.01,2013-03-21 23:30:00,
2013-03-21 19:35:00,66.0,26.2,29.90,West,262,0.0,1.0,22,0.00,,---,0.01,VWS V14.01,2013-03-21 23:35:00,
2013-03-21 19:40:00,65.9,26.8,29.90,NW,304,1.1,1.4,23,0.00,,---,0.01,VWS V14.01,2013-03-21 23:40:00,
2013-03-21 19:45:00,65.9,27.2,29.90,NW,322,2.7,2.7,23,0.00,,---,0.01,VWS V14.01,2013-03-21 23:45:00,
2013-03-21 19:50:00,65.0,27.2,29.90,NW,319,0.5,1.4,24,0.00,,---,0.01,VWS V14.01,2013-03-21 23:50:00,
2013-03-21 19:55:00,65.0,27.9,29.90,NW,318,0.0,0.0,24,0.00,,---,0.01,VWS V14.01,2013-03-21 23:55:00,
2013-03-21 20:00:00,64.7,28.3,29.91,NW,318,0.0,0.0,25,0.00,,---,0.01,VWS V14.01,2013-03-22 00:00:00,
2013-03-21 20:05:00,64.9,28.8,29.91,NW,318,0.0,0.0,26,0.00,,---,0.01,VWS V14.01,2013-03-22 00:05:00,
2013-03-21 20:10:00,64.4,28.5,29.91,NW,311,0.0,0.0,26,0.00,,---,0.01,VWS V14.01,2013-03-22 00:10:00,
2013-03-21 20:15:00,64.2,29.5,29.91,NW,323,0.0,0.0,27,0.00,,---,0.01,VWS V14.01,2013-03-22 00:15:00,
2013-03-21 20:20:00,63.8,30.3,29.91,NW,323,0.0,0.0,28,0.00,,---,0.01,VWS V14.01,2013-03-22 00:20:00,
2013-03-21 20:25:00,62.9,30.2,29.91,NW,323,0.0,0.0,29,0.00,,---,0.01,VWS V14.01,2013-03-22 00:25:00,
2013-03-21 20:30:00,61.9,30.8,29.92,NW,323,0.0,0.0,31,0.00,,---,0.01,VWS V14.01,2013-03-22 00:30:00,
2013-03-21 20:35:00,61.5,31.9,29.92,NW,316,0.0,0.0,33,0.00,,---,0.01,VWS V14.01,2013-03-22 00:35:00,
2013-03-21 20:40:00,60.9,31.9,29.92,WNW,292,4.3,6.7,33,0.00,,---,0.01,VWS V14.01,2013-03-22 00:40:00,
2013-03-21 20:45:00,61.3,34.3,29.92,West,271,4.6,7.3,36,0.00,,---,0.01,VWS V14.01,2013-03-22 00:45:00,
2013-03-21 20:50:00,62.2,35.9,29.92,WSW,253,1.9,2.7,37,0.00,,---,0.01,VWS V14.01,2013-03-22 00:50:00,
2013-03-21 20:55:00,62.2,37.2,29.92,WSW,249,2.4,3.5,39,0.00,,---,0.01,VWS V14.01,2013-03-22 00:55:00,
2013-03-21 21:00:00,61.6,37.4,29.92,WNW,284,0.0,0.0,40,0.00,,---,0.01,VWS V14.01,2013-03-22 01:00:00,
2013-03-21 21:05:00,61.4,38.3,29.93,West,274,0.0,1.0,42,0.00,,---,0.01,VWS V14.01,2013-03-22 01:05:00,
2013-03-21 21:10:00,61.5,39.4,29.93,West,274,3.4,5.3,44,0.00,,---,0.01,VWS V14.01,2013-03-22 01:10:00,
2013-03-21 21:15:00,61.0,39.9,29.93,WSW,239,0.0,3.3,46,0.00,,---,0.01,VWS V14.01,2013-03-22 01:15:00,
2013-03-21 21:20:00,60.9,40.4,29.93,SW,233,1.6,2.2,47,0.00,,---,0.01,VWS V14.01,2013-03-22 01:20:00,
2013-03-21 21:25:00,60.7,41.0,29.93,WSW,257,2.2,2.7,48,0.00,,---,0.01,VWS V14.01,2013-03-22 01:25:00,
2013-03-21 21:30:00,60.7,41.5,29.93,West,264,1.8,3.9,49,0.00,,---,0.01,VWS V14.01,2013-03-22 01:30:00,
2013-03-21 21:35:00,60.1,41.4,29.93,West,267,1.9,4.2,50,0.00,,---,0.01,VWS V14.01,2013-03-22 01:35:00,
2013-03-21 21:40:00,59.9,41.6,29.93,West,267,2.4,5.0,51,0.00,,---,0.01,VWS V14.01,2013-03-22 01:40:00,
2013-03-21 21:45:00,59.3,41.3,29.94,WSW,250,1.9,2.9,51,0.00,,---,0.01,VWS V14.01,2013-03-22 01:45:00,
2013-03-21 21:50:00,59.3,41.7,29.94,West,264,0.0,0.7,52,0.00,,---,0.01,VWS V14.01,2013-03-22 01:50:00,
2013-03-21 21:55:00,59.5,42.1,29.95,West,271,2.4,3.6,52,0.00,,---,0.01,VWS V14.01,2013-03-22 01:55:00,
2013-03-21 22:00:00,59.3,42.3,29.95,West,277,3.2,5.6,53,0.00,,---,0.01,VWS V14.01,2013-03-22 02:00:00,
2013-03-21 22:05:00,59.2,42.5,29.95,West,270,1.9,2.7,54,0.00,,---,0.01,VWS V14.01,2013-03-22 02:05:00,
2013-03-21 22:10:00,59.2,42.7,29.95,WSW,257,0.0,0.0,54,0.00,,---,0.01,VWS V14.01,2013-03-22 02:10:00,
2013-03-21 22:15:00,58.4,42.3,29.95,SW,232,2.6,3.5,55,0.00,,---,0.01,VWS V14.01,2013-03-22 02:15:00,
2013-03-21 22:20:00,58.5,42.6,29.95,WSW,243,1.8,2.9,56,0.00,,---,0.01,VWS V14.01,2013-03-22 02:20:00,
2013-03-21 22:25:00,58.7,43.0,29.95,WSW,243,3.1,4.7,56,0.00,,---,0.01,VWS V14.01,2013-03-22 02:25:00,
2013-03-21 22:30:00,58.2,42.9,29.95,SW,233,2.2,3.8,57,0.00,,---,0.01,VWS V14.01,2013-03-22 02:30:00,
2013-03-21 22:35:00,58.2,43.2,29.95,SW,222,2.1,5.4,57,0.00,,---,0.01,VWS V14.01,2013-03-22 02:35:00,
2013-03-21 22:40:00,57.4,42.8,29.95,SW,233,0.5,3.5,58,0.00,,---,0.01,VWS V14.01,2013-03-22 02:40:00,
2013-03-21 22:45:00,57.0,42.7,29.95,SW,222,0.0,1.6,59,0.00,,---,0.01,VWS V14.01,2013-03-22 02:45:00,
2013-03-21 22:50:00,57.4,43.3,29.95,SW,222,0.0,0.0,59,0.00,,---,0.01,VWS V14.01,2013-03-22 02:50:00,
2013-03-21 22:55:00,56.9,43.1,29.96,SW,222,0.0,0.0,60,0.00,,---,0.01,VWS V14.01,2013-03-22 02:55:00,
2013-03-21 23:00:00,56.6,43.0,29.96,WSW,238,2.9,4.3,60,0.00,,---,0.01,VWS V14.01,2013-03-22 03:00:00,
2013-03-21 23:05:00,56.6,43.2,29.96,WSW,249,2.0,4.0,61,0.00,,---,0.01,VWS V14.01,2013-03-22 03:05:00,
2013-03-21 23:10:00,56.2,43.1,29.96,SW,224,0.0,1.8,61,0.00,,---,0.01,VWS V14.01,2013-03-22 03:10:00,
2013-03-21 23:15:00,56.0,43.0,29.96,West,263,1.8,5.8,62,0.00,,---,0.01,VWS V14.01,2013-03-22 03:15:00,
2013-03-21 23:20:00,56.3,43.5,29.96,WSW,257,0.0,0.0,62,0.00,,---,0.01,VWS V14.01,2013-03-22 03:20:00,
2013-03-21 23:25:00,55.9,43.2,29.96,West,260,4.5,4.5,62,0.00,,---,0.01,VWS V14.01,2013-03-22 03:25:00,
2013-03-21 23:30:00,55.8,43.1,29.96,WSW,245,2.4,4.7,62,0.00,,---,0.01,VWS V14.01,2013-03-22 03:30:00,
2013-03-21 23:35:00,55.6,43.0,29.96,WSW,248,1.9,2.8,62,0.00,,---,0.01,VWS V14.01,2013-03-22 03:35:00,
2013-03-21 23:40:00,54.9,42.5,29.96,West,260,2.9,3.9,63,0.00,,---,0.01,VWS V14.01,2013-03-22 03:40:00,
2013-03-21 23:45:00,54.6,42.5,29.96,West,259,2.1,3.4,64,0.00,,---,0.01,VWS V14.01,2013-03-22 03:45:00,
2013-03-21 23:50:00,55.1,43.2,29.96,West,263,0.0,0.0,64,0.00,,---,0.01,VWS V14.01,2013-03-22 03:50:00,
2013-03-21 23:55:00,54.5,42.9,29.96,West,259,2.1,2.8,65,0.00,,---,0.01,VWS V14.01,2013-03-22 03:55:00,